Time,TemperatureF,DewpointF,PressureIn,WindDirection,WindDirectionDegrees,WindSpeedMPH,WindSpeedGustMPH,Humidity,HourlyPrecipIn,Conditions,Clouds,dailyrainin,SoftwareType,DateUTC
2013-01-23 00:14:00,24.3,21.0,30.25,ENE,77,5.0,6.0,88,0.00,,,0.00,weatherlink.com 1.10,2013-01-23 08:14:00,
2013-01-23 00:29:00,25.1,21.0,30.25,ENE,68,5.0,8.0,85,0.00,,,0.00,weatherlink.com 1.10,2013-01-23 08:29:00,
2013-01-23 00:44:00,25.4,22.0,30.26,ENE,68,6.0,6.0,85,0.00,,,0.00,weatherlink.com 1.10,2013-01-23 08:44:00,
2013-01-23 00:59:00,25.2,21.0,30.25,ENE,67,4.0,6.0,85,0.00,,,0.00,weatherlink.com 1.10,2013-01-23 08:59:00,
2013-01-23 01:14:00,25.7,21.0,30.26,East,91,6.0,6.0,83,0.00,,,0.00,weatherlink.com 1.10,2013-01-23 09:14:00,
2013-01-23 01:29:00,24.4,21.0,30.26,SE,134,1.0,6.0,86,0.00,,,0.00,weatherlink.com 1.10,2013-01-23 09:29:00,
2013-01-23 01:44:00,24.6,21.0,30.26,ENE,72,3.0,7.0,86,0.00,,,0.00,weatherlink.com 1.10,2013-01-23 09:44:00,
2013-01-23 01:59:00,24.0,21.0,30.26,ENE,77,3.0,8.0,87,0.00,,,0.00,weatherlink.com 1.10,2013-01-23 09:59:00,
2013-01-23 02:14:00,26.5,22.0,30.26,NE,55,5.0,8.0,83,0.00,,,0.00,weatherlink.com 1.10,2013-01-23 10:14:00,
2013-01-23 02:29:00,26.7,22.0,30.25,NNW,336,1.0,8.0,83,0.00,,,0.00,weatherlink.com 1.10,2013-01-23 10:29:00,
2013-01-23 02:44:00,26.0,22.0,30.25,East,84,6.0,9.0,84,0.00,,,0.00,weatherlink.com 1.10,2013-01-23 10:44:00,
2013-01-23 02:59:00,25.5,22.0,30.23,East,87,9.0,9.0,86,0.00,,,0.00,weatherlink.com 1.10,2013-01-23 10:59:00,
2013-01-23 03:14:00,25.8,22.0,30.23,East,94,5.0,8.0,86,0.00,,,0.00,weatherlink.com 1.10,2013-01-23 11:14:00,
2013-01-23 03:29:00,24.7,22.0,30.22,East,82,7.0,9.0,90,0.00,,,0.00,weatherlink.com 1.10,2013-01-23 11:29:00,
2013-01-23 03:44:00,25.2,22.0,30.22,ENE,64,7.0,9.0,89,0.00,,,0.00,weatherlink.com 1.10,2013-01-23 11:44:00,
2013-01-23 03:59:00,25.1,22.0,30.22,East,98,6.0,8.0,89,0.00,,,0.00,weatherlink.com 1.10,2013-01-23 11:59:00,
2013-01-23 04:14:00,25.5,23.0,30.21,East,93,4.0,9.0,88,0.00,,,0.00,weatherlink.com 1.10,2013-01-23 12:14:00,
2013-01-23 04:29:00,25.1,22.0,30.21,East,79,6.0,10.0,89,0.00,,,0.00,weatherlink.com 1.10,2013-01-23 12:29:00,
2013-01-23 04:44:00,24.3,22.0,30.21,NE,49,8.0,9.0,91,0.00,,,0.00,weatherlink.com 1.10,2013-01-23 12:44:00,
2013-01-23 04:59:00,26.1,23.0,30.21,East,98,3.0,7.0,86,0.00,,,0.00,weatherlink.com 1.10,2013-01-23 12:59:00,
2013-01-23 05:15:00,27.0,22.0,30.21,ENE,78,6.0,8.0,81,0.00,,,0.00,weatherlink.com 1.10,2013-01-23 13:15:00,
2013-01-23 05:29:00,26.9,22.0,30.21,East,91,3.0,9.0,83,0.00,,,0.00,weatherlink.com 1.10,2013-01-23 13:29:00,
2013-01-23 05:44:00,26.8,22.0,30.19,NE,54,4.0,7.0,81,0.00,,,0.00,weatherlink.com 1.10,2013-01-23 13:44:00,
2013-01-23 05:59:00,26.4,22.0,30.19,ENE,72,6.0,8.0,84,0.00,,,0.00,weatherlink.com 1.10,2013-01-23 13:59:00,
2013-01-23 06:14:00,25.0,22.0,30.20,ENE,64,4.0,7.0,88,0.00,,,0.00,weatherlink.com 1.10,2013-01-23 14:14:00,
2013-01-23 06:29:00,26.2,23.0,30.19,NNE,31,1.0,8.0,86,0.00,,,0.00,weatherlink.com 1.10,2013-01-23 14:29:00,
2013-01-23 06:44:00,26.3,22.0,30.18,East,79,6.0,7.0,85,0.00,,,0.00,weatherlink.com 1.10,2013-01-23 14:44:00,
2013-01-23 06:59:00,26.2,22.0,30.17,East,79,5.0,9.0,84,0.00,,,0.00,weatherlink.com 1.10,2013-01-23 14:59:00,
2013-01-23 07:14:00,26.6,22.0,30.17,ENE,72,6.0,9.0,84,0.00,,,0.00,weatherlink.com 1.10,2013-01-23 15:14:00,
2013-01-23 07:29:00,25.8,22.0,30.18,East,89,5.0,9.0,84,0.00,,,0.00,weatherlink.com 1.10,2013-01-23 15:29:00,
2013-01-23 07:44:00,25.1,22.0,30.17,ENE,65,4.0,9.0,87,0.00,,,0.00,weatherlink.com 1.10,2013-01-23 15:44:00,
2013-01-23 07:59:00,26.9,22.0,30.17,ENE,59,4.0,10.0,83,0.00,,,0.00,weatherlink.com 1.10,2013-01-23 15:59:00,
2013-01-23 08:14:00,27.4,22.0,30.17,East,97,5.0,9.0,81,0.00,,,0.00,weatherlink.com 1.10,2013-01-23 16:14:00,
2013-01-23 08:30:00,27.8,23.0,30.16,ENE,76,7.0,8.0,81,0.00,,,0.00,weatherlink.com 1.10,2013-01-23 16:30:00,
2013-01-23 08:45:00,28.9,23.0,30.16,NE,55,6.0,9.0,79,0.00,,,0.00,weatherlink.com 1.10,2013-01-23 16:45:00,
2013-01-23 09:00:00,28.8,23.0,30.17,East,84,1.0,6.0,79,0.00,,,0.00,weatherlink.com 1.10,2013-01-23 17:00:00,
2013-01-23 09:15:00,27.3,23.0,30.18,NE,36,5.0,9.0,82,0.00,,,0.00,weatherlink.com 1.10,2013-01-23 17:15:00,
2013-01-23 09:30:00,29.0,23.0,30.17,NE,40,4.0,6.0,78,0.00,,,0.00,weatherlink.com 1.10,2013-01-23 17:30:00,
2013-01-23 09:45:00,31.1,24.0,30.16,East,98,4.0,8.0,74,0.00,,,0.00,weatherlink.com 1.10,2013-01-23 17:45:00,
2013-01-23 10:00:00,31.0,24.0,30.16,ESE,106,6.0,8.0,75,0.00,,,0.00,weatherlink.com 1.10,2013-01-23 18:00:00,
2013-01-23 10:15:00,32.3,25.0,30.16,NE,39,3.0,7.0,73,0.00,,,0.00,weatherlink.com 1.10,2013-01-23 18:15:00,
2013-01-23 10:30:00,33.8,25.0,30.15,NE,56,3.0,8.0,70,0.00,,,0.00,weatherlink.com 1.10,2013-01-23 18:30:00,
2013-01-23 10:45:00,34.4,25.0,30.15,ENE,75,7.0,8.0,69,0.00,,,0.00,weatherlink.com 1.10,2013-01-23 18:45:00,
2013-01-23 11:00:00,34.8,26.0,30.14,East,91,2.0,9.0,69,0.00,,,0.00,weatherlink.com 1.10,2013-01-23 19:00:00,
2013-01-23 11:15:00,34.2,26.0,30.13,East,86,6.0,7.0,71,0.00,,,0.00,weatherlink.com 1.10,2013-01-23 19:15:00,
2013-01-23 11:30:00,33.9,26.0,30.12,ENE,69,5.0,9.0,72,0.00,,,0.00,weatherlink.com 1.10,2013-01-23 19:30:00,
2013-01-23 11:45:00,34.1,25.0,30.12,NE,49,6.0,9.0,70,0.00,,,0.00,weatherlink.com 1.10,2013-01-23 19:45:00,
2013-01-23 12:00:00,34.7,25.0,30.11,East,91,2.0,6.0,68,0.00,,,0.00,weatherlink.com 1.10,2013-01-23 20:00:00,
2013-01-23 12:15:00,34.7,26.0,30.10,ENE,70,3.0,7.0,70,0.00,,,0.00,weatherlink.com 1.10,2013-01-23 20:15:00,
2013-01-23 12:30:00,34.4,25.0,30.09,ENE,60,1.0,5.0,68,0.00,,,0.00,weatherlink.com 1.10,2013-01-23 20:30:00,
2013-01-23 12:45:00,35.8,26.0,30.09,East,91,2.0,4.0,67,0.00,,,0.00,weatherlink.com 1.10,2013-01-23 20:45:00,
2013-01-23 13:00:00,37.4,25.0,30.08,East,98,2.0,6.0,62,0.00,,,0.00,weatherlink.com 1.10,2013-01-23 21:00:00,
2013-01-23 13:15:00,36.3,26.0,30.07,ENE,60,5.0,7.0,67,0.00,,,0.00,weatherlink.com 1.10,2013-01-23 21:15:00,
2013-01-23 13:30:00,35.4,26.0,30.07,NE,46,7.0,9.0,68,0.00,,,0.00,weatherlink.com 1.10,2013-01-23 21:30:00,
2013-01-23 13:45:00,35.2,26.0,30.07,East,93,5.0,7.0,68,0.00,,,0.00,weatherlink.com 1.10,2013-01-23 21:45:00,
2013-01-23 14:00:00,35.0,26.0,30.08,East,85,3.0,7.0,69,0.00,,,0.00,weatherlink.com 1.10,2013-01-23 22:00:00,
2013-01-23 14:15:00,35.9,25.0,30.09,East,85,1.0,4.0,64,0.00,,,0.00,weatherlink.com 1.10,2013-01-23 22:15:00,
2013-01-23 14:30:00,35.5,26.0,30.08,East,101,1.0,3.0,68,0.00,,,0.00,weatherlink.com 1.10,2013-01-23 22:30:00,
2013-01-23 14:45:00,35.5,25.0,30.09,ESE,102,0.0,1.0,67,0.00,,,0.00,weatherlink.com 1.10,2013-01-23 22:45:00,
2013-01-23 15:00:00,34.4,27.0,30.09,East,80,0.0,1.0,75,0.00,,,0.00,weatherlink.com 1.10,2013-01-23 23:00:00,
2013-01-23 15:15:00,34.6,27.0,30.08,NE,49,3.0,4.0,74,0.01,,,0.01,weatherlink.com 1.10,2013-01-23 23:15:00,
2013-01-23 15:30:00,34.3,27.0,30.07,ENE,64,1.0,6.0,76,0.02,,,0.02,weatherlink.com 1.10,2013-01-23 23:30:00,
2013-01-23 15:45:00,33.0,28.0,30.08,NE,53,4.0,8.0,81,0.03,,,0.03,weatherlink.com 1.10,2013-01-23 23:45:00,
2013-01-23 16:00:00,32.1,28.0,30.09,NE,39,7.0,11.0,84,0.04,,,0.04,weatherlink.com 1.10,2013-01-24 00:00:00,
2013-01-23 16:15:00,32.1,28.0,30.07,NE,51,8.0,12.0,85,0.03,,,0.04,weatherlink.com 1.10,2013-01-24 00:15:00,
2013-01-23 16:31:00,32.5,29.0,30.08,NE,55,2.0,10.0,86,0.02,,,0.04,weatherlink.com 1.10,2013-01-24 00:31:00,
2013-01-23 16:46:00,33.7,29.0,30.07,East,79,4.0,7.0,84,0.01,,,0.04,weatherlink.com 1.10,2013-01-24 00:46:00,
2013-01-23 17:01:00,33.9,30.0,30.08,East,80,3.0,8.0,86,0.00,,,0.04,weatherlink.com 1.10,2013-01-24 01:01:00,
2013-01-23 17:16:00,34.3,31.0,30.07,ENE,69,5.0,8.0,86,0.01,,,0.05,weatherlink.com 1.10,2013-01-24 01:16:00,
2013-01-23 17:31:00,34.7,31.0,30.07,NE,47,10.0,14.0,86,0.01,,,0.05,weatherlink.com 1.10,2013-01-24 01:31:00,
2013-01-23 17:46:00,34.3,31.0,30.07,ENE,67,10.0,14.0,89,0.02,,,0.06,weatherlink.com 1.10,2013-01-24 01:46:00,
2013-01-23 18:01:00,34.4,32.0,30.07,ENE,69,9.0,16.0,89,0.02,,,0.06,weatherlink.com 1.10,2013-01-24 02:01:00,
2013-01-23 18:16:00,34.9,32.0,30.06,NE,43,11.0,16.0,89,0.01,,,0.06,weatherlink.com 1.10,2013-01-24 02:16:00,
2013-01-23 18:31:00,35.5,32.0,30.05,NE,35,8.0,16.0,88,0.01,,,0.06,weatherlink.com 1.10,2013-01-24 02:31:00,
2013-01-23 18:46:00,35.5,32.0,30.05,NE,44,8.0,18.0,87,0.01,,,0.07,weatherlink.com 1.10,2013-01-24 02:46:00,
2013-01-23 19:01:00,35.7,32.0,30.05,NNE,24,11.0,15.0,87,0.01,,,0.07,weatherlink.com 1.10,2013-01-24 03:01:00,
2013-01-23 19:16:00,35.8,32.0,30.05,NE,47,7.0,14.0,86,0.01,,,0.07,weatherlink.com 1.10,2013-01-24 03:16:00,
2013-01-23 19:31:00,35.9,32.0,30.06,ENE,67,3.0,11.0,87,0.01,,,0.07,weatherlink.com 1.10,2013-01-24 03:31:00,
2013-01-23 19:46:00,35.5,32.0,30.07,East,83,5.0,11.0,87,0.00,,,0.07,weatherlink.com 1.10,2013-01-24 03:46:00,
2013-01-23 20:01:00,35.3,32.0,30.07,NE,52,7.0,18.0,88,0.00,,,0.07,weatherlink.com 1.10,2013-01-24 04:01:00,
2013-01-23 20:16:00,35.7,32.0,30.06,ENE,60,4.0,8.0,87,0.00,,,0.07,weatherlink.com 1.10,2013-01-24 04:16:00,
2013-01-23 20:31:00,35.3,32.0,30.06,East,79,5.0,9.0,88,0.00,,,0.07,weatherlink.com 1.10,2013-01-24 04:31:00,
2013-01-23 20:46:00,35.4,32.0,30.06,ENE,77,5.0,7.0,87,0.00,,,0.07,weatherlink.com 1.10,2013-01-24 04:46:00,
2013-01-23 21:16:00,35.2,32.0,30.07,East,79,4.0,7.0,88,0.01,,,0.08,weatherlink.com 1.10,2013-01-24 05:16:00,
2013-01-23 21:31:00,35.0,32.0,30.09,East,94,1.0,5.0,88,0.01,,,0.08,weatherlink.com 1.10,2013-01-24 05:31:00,
2013-01-23 21:46:00,33.7,31.0,30.10,WSW,256,4.0,8.0,90,0.01,,,0.08,weatherlink.com 1.10,2013-01-24 05:46:00,
2013-01-23 22:01:00,32.9,31.0,30.11,WSW,252,0.0,8.0,92,0.00,,,0.08,weatherlink.com 1.10,2013-01-24 06:01:00,
2013-01-23 22:16:00,34.7,31.0,30.11,West,271,4.0,7.0,87,0.00,,,0.08,weatherlink.com 1.10,2013-01-24 06:16:00,
2013-01-23 22:31:00,35.2,31.0,30.13,WNW,297,5.0,10.0,84,0.00,,,0.08,weatherlink.com 1.10,2013-01-24 06:31:00,
2013-01-23 22:46:00,33.3,31.0,30.12,NW,317,2.0,7.0,91,0.00,,,0.08,weatherlink.com 1.10,2013-01-24 06:46:00,
2013-01-23 23:01:00,33.8,30.0,30.12,West,278,1.0,3.0,86,0.00,,,0.08,weatherlink.com 1.10,2013-01-24 07:01:00,
2013-01-23 23:16:00,33.1,31.0,30.13,East,84,1.0,2.0,90,0.00,,,0.08,weatherlink.com 1.10,2013-01-24 07:16:00,
2013-01-23 23:31:00,33.2,30.0,30.13,NE,41,1.0,2.0,86,0.00,,,0.08,weatherlink.com 1.10,2013-01-24 07:31:00,
2013-01-23 23:46:00,33.8,30.0,30.13,NE,40,1.0,1.0,84,0.00,,,0.08,weatherlink.com 1.10,2013-01-24 07:46:00,